Pittsburgh, PA

1:04 AM EST on December 10, 2019 (GMT -0500)
Pittsburgh International

Weather History for KPIT - October, 2019

Change the Weather History Date:

Tuesday, October 8, 2019

  Actual Average Record
Temperature  
Mean Temperature 57 °F 55 °F  
Max Temperature 66 °F 65 °F 87 °F (2007)
Min Temperature 48 °F 45 °F 29 °F (2001)
Degree Days  
Heating Degree Days 8 10  
Month to date heating degree days 40 73  
Since 1 July heating degree days 48 187  
Cooling Degree Days 0 0  
Month to date cooling degree days 37 6  
Year to date cooling degree days 934 734  
Growing Degree Days 7 (Base 50)    
Moisture  
Dew Point 47 °F    
Average Humidity 79    
Maximum Humidity 100    
Minimum Humidity 40    
Precipitation  
Precipitation 0.00 in 0.07 in 1.29 in (1959)
Month to date precipitation 1.94 0.59  
Year to date precipitation 42.03 30.41  
Snow  
Snow 0.00 in 0.00 in 0.00 in (2001)
Month to date snowfall 0.0 0.0  
Snow Depth 0.00 in    
Sea Level Pressure  
Sea Level Pressure 30.26 in    
Wind  
Wind Speed 3 mph ()    
Max Wind Speed 15 mph    
Max Gust Speed 21 mph    
Visibility 6.5 miles    
Events Fog    
T = Trace of Precipitation, MM = Missing Value Source: Averaged Metar Reports

Daily Weather History Graph

Daily Weather History Graph

Search for Another Location

Airport or City:

Astronomy

Oct. 08, 2019 Rise Set
Actual Time 7:24 AM EDT 6:52 PM EDT
Civil Twilight 6:56 AM EDT 7:19 PM EDT
Nautical Twilight 6:25 AM EDT 7:50 PM EDT
Astronomical Twilight 5:53 AM EDT 8:22 PM EDT
Moon 4:51 PM EDT (10/8) 2:10 AM EDT (10/8)
Length of Visible Light 12h 22m
Length of Day
11h 27m
Waxing Gibbous, 77% of the Moon is Illuminated
Oct 8
Waxing Gibbous
Oct 13
Full
Oct 21
Last Quarter
Oct 27
New
Nov 4
First Quarter

Hourly Weather History & Observations

Time (EDT) Temp. Dew Point Humidity Pressure Visibility Wind Dir Wind Speed Gust Speed Precip Events Conditions
12:51 AM 50.0 °F 48.9 °F 96% 30.26 in 6.0 mi Calm Calm - N/A   Overcast
1:51 AM 48.9 °F 48.0 °F 97% 30.26 in 4.0 mi Calm Calm - N/A   Mostly Cloudy
2:02 AM 48.9 °F 48.0 °F 97% 30.24 in 4.0 mi Calm Calm - N/A   Mostly Cloudy
2:11 AM 48.9 °F 48.0 °F 97% 30.24 in 0.8 mi Calm Calm - N/A   Mostly Cloudy
2:32 AM 48.9 °F 48.0 °F 97% 30.24 in 0.5 mi Calm Calm - N/A Fog Fog
2:51 AM 48.9 °F 48.0 °F 97% 30.27 in 0.2 mi Calm Calm - N/A Fog Fog
3:36 AM 48.9 °F 48.0 °F 97% 30.23 in 0.1 mi Calm Calm - N/A Fog Fog
3:51 AM 48.9 °F 48.0 °F 97% 30.26 in 0.1 mi Calm Calm - N/A Fog Fog
4:51 AM 48.9 °F 48.9 °F 100% 30.27 in 0.1 mi South 3.5 mph - N/A Fog Fog
5:51 AM 50.0 °F 48.9 °F 96% 30.29 in 0.1 mi ENE 3.5 mph - N/A Fog Fog
6:40 AM 50.0 °F 48.9 °F 96% 30.26 in 0.1 mi NE 10.4 mph - N/A Fog Fog
6:51 AM 50.0 °F 48.9 °F 96% 30.30 in 0.1 mi ENE 8.1 mph - N/A Fog Fog
7:21 AM 50.0 °F 48.9 °F 96% 30.27 in 2.5 mi ENE 5.8 mph - N/A   Overcast
7:38 AM 50.0 °F 48.9 °F 96% 30.28 in 7.0 mi ENE 6.9 mph - N/A   Overcast
7:51 AM 50.0 °F 48.9 °F 96% 30.31 in 7.0 mi ENE 6.9 mph - N/A   Overcast
8:30 AM 51.1 °F 48.9 °F 92% 30.28 in 8.0 mi ENE 5.8 mph - N/A   Mostly Cloudy
8:51 AM 51.1 °F 48.9 °F 92% 30.31 in 10.0 mi NE 5.8 mph - N/A   Mostly Cloudy
9:11 AM 52.0 °F 48.9 °F 89% 30.28 in 10.0 mi NE 6.9 mph - N/A   Scattered Clouds
9:32 AM 53.1 °F 50.0 °F 89% 30.28 in 10.0 mi ENE 5.8 mph - N/A   Mostly Cloudy
9:51 AM 53.1 °F 50.0 °F 89% 30.31 in 10.0 mi NE 6.9 mph - N/A   Scattered Clouds
10:51 AM 57.0 °F 48.9 °F 74% 30.31 in 10.0 mi East 6.9 mph - N/A   Scattered Clouds
11:51 AM 61.0 °F 46.0 °F 58% 30.30 in 10.0 mi ENE 11.5 mph 18.4 mph N/A   Scattered Clouds
12:51 PM 63.0 °F 46.0 °F 54% 30.28 in 10.0 mi East 12.7 mph - N/A   Scattered Clouds
1:51 PM 63.0 °F 44.1 °F 50% 30.26 in 10.0 mi Variable 4.6 mph - N/A   Partly Cloudy
2:51 PM 64.9 °F 43.0 °F 45% 30.24 in 10.0 mi East 9.2 mph 18.4 mph N/A   Partly Cloudy
3:51 PM 64.9 °F 39.9 °F 40% 30.23 in 10.0 mi ESE 10.4 mph - N/A   Partly Cloudy
4:51 PM 66.0 °F 41.0 °F 40% 30.22 in 10.0 mi NE 6.9 mph - N/A   Partly Cloudy
5:51 PM 64.0 °F 42.1 °F 45% 30.22 in 10.0 mi East 5.8 mph - N/A   Scattered Clouds
6:51 PM 61.0 °F 43.0 °F 52% 30.23 in 10.0 mi ENE 4.6 mph - N/A   Mostly Cloudy
7:51 PM 59.0 °F 44.1 °F 58% 30.24 in 10.0 mi East 3.5 mph - N/A   Mostly Cloudy
8:51 PM 57.0 °F 44.1 °F 62% 30.25 in 10.0 mi East 3.5 mph - N/A   Mostly Cloudy
9:51 PM 54.0 °F 45.0 °F 72% 30.25 in 10.0 mi SE 3.5 mph - N/A   Mostly Cloudy
10:51 PM 54.0 °F 44.1 °F 69% 30.25 in 10.0 mi SE 4.6 mph - N/A   Mostly Cloudy
11:51 PM 53.1 °F 44.1 °F 71% 30.24 in 10.0 mi ESE 5.8 mph - N/A   Mostly Cloudy